W2JV-2 Weather Reports


Display with metric or nautical units.
time (UTC)temp
F
wind
direction
speed
MPH
gust
MPH
rain 1hr
in
rain 24hr
in
rain mn
in
humidity
%
barometer
mb
20260902123002 66 249 0.0 3.0 0.00 0.18 0.00 87 1019.8
20260902122502 66 268 0.0 2.0 0.00 0.18 0.00 87 1019.8
20260902122003 66 295 1.0 3.0 0.00 0.18 0.00 87 1019.7
20260902121502 66 263 0.0 3.0 0.00 0.18 0.00 88 1019.7
20260902121002 66 65 0.0 2.0 0.00 0.18 0.00 88 1019.7
20260902120503 66 289 0.0 2.0 0.00 0.18 0.00 88 1019.7
20260902120003 66 184 1.0 3.0 0.00 0.18 0.00 88 1019.8
20260902115502 66 249 1.0 3.0 0.00 0.18 0.00 88 1019.8
20260902115002 66 249 0.0 0.0 0.00 0.18 0.00 88 1019.8
20260902114503 66 81 0.0 2.0 0.00 0.18 0.00 88 1019.8
20260902114003 66 233 0.0 1.0 0.00 0.18 0.00 88 1020.0
20260902113502 65 236 0.0 1.0 0.00 0.18 0.00 88 1020.0
20260902113002 65 163 0.0 1.0 0.00 0.18 0.00 88 1020.0
20260902112003 65 274 0.0 2.0 0.00 0.18 0.00 88 1019.9
20260902111003 65 105 0.0 3.0 0.00 0.18 0.00 88 1019.8
20260902110502 65 222 0.0 2.0 0.00 0.18 0.00 88 1019.7
20260902110003 65 221 0.0 3.0 0.00 0.18 0.00 88 1019.7
20260902105504 65 307 0.0 2.0 0.00 0.18 0.00 88 1019.6
20260902105002 65 245 0.0 1.0 0.00 0.18 0.00 88 1019.7
20260902104502 65 232 0.0 2.0 0.00 0.18 0.00 88 1019.7
20260902104003 65 229 1.0 3.0 0.00 0.18 0.00 88 1019.5
20260902103002 66 277 1.0 3.0 0.00 0.18 0.00 88 1019.4
20260902102502 66 69 1.0 3.0 0.00 0.18 0.00 88 1019.3
20260902102002 66 304 0.0 0.0 0.00 0.18 0.00 88 1019.3
20260902101502 66 304 0.0 0.0 0.00 0.18 0.00 88 1019.3
20260902100502 66 313 0.0 0.0 0.00 0.18 0.00 88 1019.4
20260902095502 66 313 0.0 2.0 0.00 0.18 0.00 88 1019.3
20260902094503 66 219 0.0 2.0 0.00 0.18 0.00 88 1019.2
20260902094003 66 219 0.0 1.0 0.00 0.18 0.00 88 1019.3
20260902093504 66 222 0.0 2.0 0.00 0.18 0.00 88 1019.3
20260902092502 66 276 0.0 1.0 0.00 0.18 0.00 88 1019.1
20260902092003 66 282 0.0 0.0 0.00 0.18 0.00 88 1019.0
20260902091503 66 283 0.0 0.0 0.00 0.18 0.00 88 1018.9
20260902091002 66 289 0.0 2.0 0.00 0.18 0.00 88 1018.8
20260902090503 66 238 0.0 0.0 0.00 0.18 0.00 88 1018.7
20260902090004 66 254 0.0 0.0 0.00 0.18 0.00 88 1018.7
20260902085502 66 250 0.0 5.0 0.00 0.18 0.00 88 1018.8
20260902084502 66 276 1.0 3.0 0.00 0.18 0.00 88 1018.8
20260902084002 66 198 1.0 3.0 0.00 0.18 0.00 88 1018.6
20260902083503 67 337 0.0 3.0 0.00 0.18 0.00 88 1018.6
20260902083003 67 86 1.0 3.0 0.00 0.18 0.00 88 1018.6
20260902082502 67 305 1.0 3.0 0.00 0.18 0.00 88 1018.5
20260902082002 67 92 1.0 5.0 0.00 0.18 0.00 88 1018.5
20260902081002 67 217 0.0 3.0 0.00 0.18 0.00 88 1018.5
20260902080002 67 348 1.0 3.0 0.00 0.19 0.00 88 1018.3
20260902075003 68 297 1.0 5.0 0.00 0.19 0.00 88 1018.2
20260902074502 68 24 1.0 3.0 0.00 0.19 0.00 88 1018.2
20260902074002 68 317 1.0 3.0 0.00 0.19 0.00 88 1018.1
20260902073502 68 290 1.0 5.0 0.00 0.19 0.00 88 1018.1
20260902073003 68 341 1.0 7.0 0.00 0.19 0.00 88 1018.1
20260902072502 68 338 0.0 2.0 0.00 0.19 0.00 88 1018.2
20260902072002 68 334 1.0 6.0 0.00 0.20 0.00 88 1018.2
20260902071503 68 103 1.0 3.0 0.00 0.21 0.00 88 1018.1
20260902071002 68 270 1.0 2.0 0.00 0.23 0.00 88 1018.1
20260902070504 68 330 0.0 2.0 0.00 0.24 0.00 88 1018.1
20260902070003 68 10 1.0 3.0 0.00 0.28 0.00 87 1018.1
20260902065502 68 286 0.0 0.0 0.00 0.33 0.00 87 1018.1
20260902064003 68 148 0.0 0.0 0.00 0.36 0.00 87 1018.2
20260902063502 68 131 0.0 1.0 0.00 0.37 0.00 87 1018.3
20260902063003 68 130 1.0 2.0 0.00 0.39 0.00 87 1018.2
20260902062502 67 278 0.0 1.0 0.00 0.40 0.00 87 1018.2
20260902062002 67 278 1.0 2.0 0.00 0.41 0.00 87 1018.2
20260902061002 67 74 0.0 1.0 0.00 0.52 0.00 87 1018.2
20260902060003 67 133 1.0 3.0 0.00 0.67 0.00 87 1018.0
20260902054502 67 37 0.0 2.0 0.00 0.80 0.00 87 1018.3
20260902054003 67 151 0.0 1.0 0.00 0.85 0.00 87 1018.3
20260902053502 67 239 0.0 2.0 0.00 0.91 0.00 87 1018.3
20260902053002 67 292 1.0 3.0 0.00 0.95 0.00 87 1018.3
20260902052002 67 235 0.0 1.0 0.00 1.01 0.00 87 1018.0
20260902051003 67 279 0.0 2.0 0.00 1.06 0.00 87 1018.0
20260902050502 67 260 0.0 1.0 0.00 1.08 0.00 87 1018.1
20260902050004 67 191 1.0 2.0 0.00 1.09 0.00 87 1018.1
20260902045503 67 242 0.0 3.0 0.00 1.11 0.00 87 1018.1
20260902045003 67 321 1.0 3.0 0.00 1.12 0.00 87 1018.1
20260902044502 67 321 0.0 2.0 0.00 1.12 0.00 87 1018.1
20260902044002 67 55 0.0 3.0 0.00 1.13 0.00 87 1018.1
20260902043502 67 287 1.0 2.0 0.00 1.13 0.00 87 1018.2
20260902043002 67 32 1.0 2.0 0.00 1.13 0.00 87 1018.2
20260902042502 67 284 0.0 2.0 0.00 1.13 0.00 87 1018.1
20260902042002 67 34 0.0 6.0 0.00 1.13 0.00 87 1017.9
20260902041502 67 74 1.0 3.0 0.00 1.13 0.00 87 1017.7
20260902041002 67 318 0.0 3.0 0.00 1.13 0.00 87 1017.7
20260902040004 67 236 0.0 3.0 0.00 1.13 0.00 87 1017.5
20260902035003 67 172 0.0 2.0 0.00 1.13 1.13 87 1017.5
20260902034003 67 97 1.0 2.0 0.00 1.13 1.13 87 1017.7
20260902033503 67 307 1.0 3.0 0.00 1.13 1.13 87 1017.5
20260902032503 67 320 0.0 2.0 0.00 1.13 1.13 87 1017.4
20260902032003 67 177 0.0 2.0 0.00 1.13 1.13 87 1017.4
20260902031502 67 190 1.0 3.0 0.00 1.13 1.13 87 1017.5
20260902031002 67 274 0.0 2.0 0.00 1.13 1.13 87 1017.6
20260902030502 67 112 1.0 3.0 0.00 1.13 1.13 87 1017.7
20260902030003 67 99 1.0 3.0 0.00 1.13 1.13 87 1017.6
20260902025003 67 226 1.0 3.0 0.00 1.13 1.13 87 1017.4
20260902024503 67 164 0.0 3.0 0.00 1.13 1.13 87 1017.3
20260902024002 67 292 2.0 3.0 0.00 1.13 1.13 87 1017.3
20260902023502 67 298 1.0 3.0 0.00 1.13 1.13 87 1017.2
20260902022002 68 307 0.0 0.0 0.00 1.13 1.13 87 1016.9
20260902021502 68 0 0.0 3.0 0.00 1.13 1.13 87 1016.9
20260902021002 68 25 1.0 2.0 0.00 1.13 1.13 87 1016.8
20260902020503 68 85 1.0 3.0 0.00 1.13 1.13 87 1016.9
20260902020003 68 306 1.0 3.0 0.00 1.13 1.13 87 1016.6
20260902015503 68 306 2.0 5.0 0.00 1.13 1.13 87 1016.6
20260902015003 68 84 1.0 5.0 0.00 1.13 1.13 87 1016.5
20260902014503 68 125 1.0 2.0 0.00 1.13 1.13 87 1016.3
20260902014003 68 13 1.0 3.0 0.00 1.13 1.13 87 1016.4
20260902013502 68 322 1.0 2.0 0.00 1.13 1.13 87 1016.3
20260902012503 69 257 1.0 3.0 0.00 1.13 1.13 87 1016.2
20260902012003 69 308 0.0 1.0 0.00 1.13 1.13 87 1015.9
20260902011004 69 157 1.0 3.0 0.00 1.13 1.13 87 1015.7
20260902010502 69 89 1.0 3.0 0.00 1.13 1.13 87 1015.7
20260902010002 69 295 0.0 2.0 0.00 1.13 1.13 87 1015.7
20260902005503 69 80 1.0 5.0 0.00 1.13 1.13 87 1015.7
20260902005003 69 4 2.0 5.0 0.00 1.13 1.13 87 1015.6
20260902004002 69 309 1.0 6.0 0.00 1.13 1.13 87 1015.4
20260902003502 70 345 1.0 8.0 0.00 1.13 1.13 87 1015.4
20260902003003 70 15 1.0 5.0 0.00 1.13 1.13 87 1015.4
20260902002502 70 347 2.0 7.0 0.00 1.13 1.13 87 1015.4
20260902002003 70 338 1.0 5.0 0.00 1.13 1.13 87 1015.2
20260902001503 71 324 1.0 7.0 0.00 1.13 1.13 87 1015.1
20260902001003 71 348 0.0 3.0 0.00 1.13 1.13 87 1015.3
20260902000503 71 344 1.0 3.0 0.00 1.13 1.13 87 1015.4
20260902000003 72 0 1.0 6.0 0.00 1.13 1.13 87 1015.3
20260901235003 72 326 1.0 3.0 0.00 1.13 1.13 88 1015.0
20260901234504 72 328 1.0 2.0 0.00 1.13 1.13 88 1014.9
20260901233504 72 319 1.0 6.0 0.00 1.13 1.13 87 1015.1
20260901232503 73 329 1.0 5.0 0.00 1.13 1.13 88 1015.0
20260901232003 73 335 1.0 3.0 0.00 1.13 1.13 87 1015.0
20260901231002 73 343 1.0 3.0 0.00 1.13 1.13 88 1014.8
20260901230502 73 337 1.0 3.0 0.00 1.13 1.13 88 1014.8
20260901230002 74 330 0.0 3.0 0.00 1.13 1.13 88 1014.6
20260901225002 74 294 0.0 1.0 0.00 1.13 1.13 88 1014.4
20260901224503 74 294 0.0 0.0 0.00 1.13 1.13 87 1014.4
20260901224003 74 294 0.0 1.0 0.00 1.13 1.13 87 1014.4
20260901223504 74 308 0.0 3.0 0.00 1.13 1.13 88 1014.4
20260901222503 74 312 0.0 0.0 0.00 1.13 1.13 88 1014.3
20260901222004 74 322 0.0 0.0 0.00 1.13 1.13 88 1014.3
20260901221503 74 322 0.0 0.0 0.00 1.13 1.13 88 1014.4
20260901221003 75 322 0.0 0.0 0.00 1.13 1.13 87 1014.4
20260901220504 75 294 0.0 1.0 0.00 1.13 1.13 87 1014.4
20260901220002 75 219 1.0 3.0 0.00 1.13 1.13 87 1014.2
20260901215504 75 310 1.0 3.0 0.00 1.13 1.13 87 1014.4
20260901215003 75 326 1.0 3.0 0.00 1.13 1.13 87 1014.3
20260901214503 75 301 0.0 3.0 0.00 1.13 1.13 87 1014.3
20260901214003 75 331 1.0 3.0 0.00 1.13 1.13 87 1014.3
20260901213502 76 348 1.0 3.0 0.00 1.13 1.13 87 1014.4
20260901213002 76 357 0.0 0.0 0.00 1.13 1.13 87 1014.3
20260901212502 76 298 0.0 1.0 0.00 1.13 1.13 87 1014.3
20260901212002 76 295 1.0 3.0 0.00 1.13 1.13 87 1014.3
20260901211502 76 121 1.0 2.0 0.00 1.13 1.13 87 1014.3
20260901210003 77 157 0.0 0.0 0.00 1.13 1.13 87 1014.4
20260901205003 77 319 0.0 1.0 0.00 1.13 1.13 87 1014.3
20260901204502 77 338 0.0 0.0 0.00 1.13 1.13 87 1014.2
20260901204003 77 338 0.0 0.0 0.00 1.13 1.13 87 1014.3
20260901203002 77 337 0.0 2.0 0.00 1.13 1.13 87 1014.1
20260901202503 77 89 1.0 7.0 0.00 1.13 1.13 87 1014.1
20260901202002 78 3 0.0 0.0 0.00 1.13 1.13 87 1014.1
20260901201503 78 124 0.0 0.0 0.00 1.13 1.13 87 1014.1
20260901201002 78 124 0.0 0.0 0.00 1.13 1.13 87 1014.0
20260901200503 78 124 0.0 0.0 0.00 1.13 1.13 87 1013.9
20260901200004 78 198 0.0 0.0 0.00 1.13 1.13 87 1014.0
20260901195503 78 198 0.0 0.0 0.00 1.13 1.13 87 1014.0
20260901195002 78 198 0.0 0.0 0.00 1.13 1.13 87 1014.0
20260901194503 78 148 0.0 0.0 0.00 1.13 1.13 88 1013.9
20260901194003 78 136 0.0 0.0 0.00 1.13 1.13 88 1014.0
20260901193502 78 136 0.0 0.0 0.00 1.13 1.13 88 1014.1
20260901193002 78 141 0.0 0.0 0.00 1.13 1.13 88 1014.0
20260901192502 78 190 1.0 3.0 0.00 1.13 1.13 88 1014.0
20260901192003 78 222 0.0 1.0 0.00 1.13 1.13 88 1014.0
20260901191003 78 147 1.0 3.0 0.01 1.13 1.13 88 1014.1
20260901190502 77 219 1.0 2.0 0.01 1.13 1.13 88 1014.0
20260901190003 77 185 0.0 2.0 0.01 1.13 1.13 89 1014.0
20260901185503 77 223 1.0 2.0 0.01 1.13 1.13 89 1014.0
20260901185003 77 258 0.0 3.0 0.01 1.13 1.13 89 1013.9
20260901184502 78 222 1.0 3.0 0.01 1.13 1.13 89 1014.0
20260901184003 77 119 0.0 3.0 0.01 1.13 1.13 89 1014.0
20260901183502 77 219 1.0 3.0 0.01 1.13 1.13 89 1014.0
20260901183004 77 235 2.0 3.0 0.01 1.13 1.13 89 1014.0
20260901182502 77 188 1.0 2.0 0.01 1.13 1.13 89 1014.0
20260901182002 77 140 1.0 2.0 0.01 1.13 1.13 89 1014.1
20260901181002 77 174 1.0 3.0 0.00 1.12 1.12 90 1014.1
20260901180004 76 171 1.0 3.0 0.00 1.12 1.12 89 1014.1
20260901175502 76 155 2.0 5.0 0.00 1.12 1.12 89 1014.1
20260901175003 76 125 1.0 3.0 0.00 1.12 1.12 89 1014.2
20260901174503 75 172 0.0 0.0 0.00 1.12 1.12 89 1014.1
20260901174003 75 209 0.0 0.0 0.01 1.12 1.12 89 1014.1
20260901173502 75 172 0.0 0.0 0.01 1.12 1.12 89 1014.3
20260901173002 75 178 0.0 1.0 0.01 1.12 1.12 89 1014.5
20260901172502 75 224 1.0 3.0 0.01 1.12 1.12 89 1014.4
20260901170503 74 220 1.0 2.0 0.03 1.12 1.12 89 1014.5
20260901170003 74 220 1.0 2.0 0.03 1.12 1.12 89 1014.4
20260901165003 74 180 1.0 2.0 0.05 1.12 1.12 89 1014.7
20260901164503 74 184 1.0 3.0 0.05 1.12 1.12 89 1014.9
20260901164003 74 190 2.0 3.0 0.04 1.11 1.11 89 1014.9
20260901163003 74 133 1.0 3.0 0.05 1.11 1.11 89 1015.1
20260901162504 73 141 1.0 2.0 0.05 1.11 1.11 89 1015.3
20260901162003 73 192 1.0 2.0 0.05 1.11 1.11 89 1015.2
20260901161503 73 170 1.0 2.0 0.04 1.10 1.10 89 1015.3
20260901161003 73 178 1.0 2.0 0.04 1.10 1.10 89 1015.3
20260901160502 73 171 2.0 3.0 0.03 1.09 1.09 89 1015.5
20260901155503 73 223 0.0 2.0 0.03 1.08 1.08 89 1015.9
20260901155003 73 226 2.0 3.0 0.06 1.07 1.07 89 1015.7
20260901154504 73 210 1.0 2.0 0.11 1.07 1.07 89 1015.5
20260901154003 73 226 1.0 3.0 0.11 1.07 1.07 89 1015.5
20260901153504 73 170 2.0 3.0 0.11 1.07 1.07 89 1015.5
20260901153004 73 192 0.0 2.0 0.10 1.06 1.06 89 1015.5
20260901152503 73 182 1.0 7.0 0.10 1.06 1.06 89 1015.4
20260901151003 73 224 1.0 2.0 0.11 1.06 1.06 89 1015.6
20260901145503 72 145 1.0 3.0 0.10 1.05 1.05 89 1015.8
20260901145003 72 183 1.0 3.0 0.06 1.01 1.01 89 1016.1
20260901144503 72 207 0.0 0.0 0.01 0.96 0.96 89 1016.2
20260901144004 72 207 0.0 1.0 0.01 0.96 0.96 89 1016.1
20260901143504 72 207 0.0 0.0 0.01 0.96 0.96 89 1016.0
20260901143003 72 207 0.0 0.0 0.01 0.96 0.96 89 1016.0
20260901142504 72 207 0.0 1.0 0.01 0.96 0.96 89 1015.9
20260901142003 72 177 1.0 2.0 0.01 0.96 0.96 89 1015.8
20260901141502 72 194 1.0 2.0 0.00 0.95 0.95 89 1015.9
20260901141003 72 171 1.0 3.0 0.00 0.95 0.95 89 1015.9
20260901140503 72 172 0.0 1.0 0.00 0.95 0.95 89 1015.9
20260901140004 72 229 0.0 2.0 0.00 0.95 0.95 89 1015.9
20260901135503 72 192 1.0 3.0 0.00 0.95 0.95 89 1015.9
20260901135004 72 219 0.0 1.0 0.00 0.95 0.95 89 1015.8
20260901134502 72 219 0.0 1.0 0.00 0.95 0.95 89 1015.6
20260901133503 72 203 1.0 2.0 0.00 0.95 0.95 89 1015.7
20260901133002 72 148 1.0 2.0 0.00 0.95 0.95 89 1015.5
20260901131004 72 227 1.0 2.0 0.00 0.95 0.95 89 1015.6
20260901130503 72 182 0.0 2.0 0.00 0.95 0.95 89 1015.6
20260901125503 72 179 0.0 1.0 0.00 0.95 0.95 89 1015.7
20260901124503 71 198 1.0 1.0 0.00 0.95 0.95 89 1015.9
20260901123502 71 218 1.0 2.0 0.00 0.95 0.95 89 1015.9